[[{"header":{"parameterUnit":"m.s-1","parameterCategory":1,"la1":30.2991,"la2":30.254,"lo1":-89.0895,"lo2":-89.0444,"dy":0.0017,"dx":0.0017,"nx":28,"ny":28,"refTime":"2024-06-07T03:00:00:Z","depth":0,"parameterNumber":2,"parameterNumberName":"U-component_of_WINDS"},"data":[0,0,0,0,0,0,0,0,0,0,0,0,0,0,0,0,0,0,0,0,0,0,0,0,0,0,0,0,0,0,0,0,0,0,0,0,0,0,0,0,0,0,0,0,0,0,0,0,0,0,0,0,0,0,0,0,0,0,-1.5559,-1.5559,0,-1.5514,-1.5514,-1.5513,-1.5493,-1.5493,-1.5493,-1.5493,-1.5446,-1.5445,-1.5443,0,0,0,0,0,0,0,0,0,0,0,0,0,-1.5625,-1.5624,-1.5559,-1.5559,-1.5558,-1.5515,-1.5514,-1.5513,-1.5493,-1.5493,-1.5493,-1.5493,-1.5446,-1.5445,-1.5443,0,0,0,0,0,0,0,0,0,0,0,0,0,-1.559,-1.5623,-1.5559,-1.5543,-1.5541,-1.5515,-1.5514,-1.5513,-1.5493,-1.5493,-1.5493,-1.5494,-1.5447,-1.5445,-1.5443,-1.5429,0,0,-1.5437,-1.5436,0,0,0,0,0,0,0,0,-1.5592,-1.5587,-1.5546,-1.5544,-1.5542,-1.551,-1.552,-1.5485,-1.5493,-1.5511,-1.5493,-1.5494,-1.5467,-1.5463,-1.5455,-1.5427,-1.5425,-1.5437,-1.5436,-1.5435,-1.5434,0,0,0,0,0,0,0,-1.5594,-1.5589,-1.5541,-1.5545,-1.5543,-1.5537,-1.5532,-1.5513,-1.5489,-1.551,-1.5508,-1.5503,-1.5466,-1.5457,-1.5453,-1.5424,-1.5437,-1.5435,-1.5434,-1.5433,-1.5382,-1.5382,0,0,0,0,0,0,-1.56,-1.5591,-1.5543,-1.554,-1.5568,-1.5536,-1.553,-1.552,-1.5489,-1.5485,-1.5503,-1.5502,-1.546,-1.5456,-1.5452,-1.5433,-1.5435,-1.5433,-1.5432,-1.5382,-1.5382,-1.5382,0,0,0,0,0,0,-1.5601,-1.5596,-1.5545,-1.5565,-1.5558,-1.5535,-1.5523,-1.5519,-1.551,-1.5484,-1.548,-1.5498,-1.546,-1.5454,-1.5435,-1.5431,-1.5432,-1.543,-1.5382,-1.5382,-1.5382,-1.5396,0,0,0,0,0,0,-1.5603,-1.5596,-1.5591,-1.5565,-1.5557,-1.5529,-1.5523,-1.5518,-1.5507,-1.5505,-1.5479,-1.5474,-1.546,-1.5438,-1.5433,-1.5428,-1.5429,-1.5383,-1.5382,-1.5382,-1.5395,-1.5396,-1.5396,0,0,0,0,0,-1.5606,-1.5597,-1.5591,-1.5585,-1.5551,-1.5529,-1.5524,-1.5508,-1.5506,-1.5501,-1.5484,-1.5475,-1.5432,-1.5436,-1.543,-1.5425,-1.5383,-1.5382,-1.5382,-1.5395,-1.5396,-1.5396,0,0,0,0,0,0,-1.5622,-1.5593,-1.5587,-1.5569,-1.5552,-1.5526,-1.5518,-1.5509,-1.5492,-1.5491,-1.5471,-1.5465,-1.5447,-1.5434,-1.5439,-1.541,-1.5407,-1.5405,-1.5419,-1.5419,-1.542,-1.5423,-1.5427,0,0,0,0,0,-1.5624,-1.561,-1.5585,-1.5572,-1.5563,-1.5542,-1.5532,-1.5521,-1.5502,-1.5495,-1.5477,-1.5458,-1.544,-1.5429,-1.5411,-1.5393,-1.5387,-1.5387,-1.5387,-1.5388,-1.5387,-1.5375,-1.5375,-1.538,-1.538,-1.538,0,0,-1.5628,-1.561,-1.5602,-1.5575,-1.556,-1.5545,-1.5536,-1.5521,-1.5509,-1.5492,-1.5472,-1.5459,-1.5436,-1.5417,-1.5408,-1.5406,-1.5384,-1.5387,-1.5388,-1.5386,-1.5375,-1.5374,-1.5374,-1.538,-1.538,-1.538,0,0,-1.5626,-1.5611,-1.5599,-1.5584,-1.5562,-1.5548,-1.5545,-1.552,-1.551,-1.549,-1.5477,-1.5463,-1.5433,-1.5417,-1.5405,-1.5397,-1.5388,-1.5392,-1.5394,-1.5383,-1.5383,-1.5382,-1.5379,-1.5378,-1.5391,-1.5391,-1.5391,0,-1.5633,-1.561,-1.5593,-1.5578,-1.5566,-1.5551,-1.5537,-1.5524,-1.5497,-1.5488,-1.5486,-1.5448,-1.5432,-1.5409,-1.5407,-1.5398,-1.5393,-1.5395,-1.5384,-1.5384,-1.5383,-1.5379,-1.5378,-1.5391,-1.5391,-1.5391,-1.5391,0,-1.5619,-1.5603,-1.5596,-1.557,-1.5558,-1.5543,-1.5524,-1.5513,-1.5502,-1.5488,-1.5468,-1.5448,-1.5426,-1.5419,-1.5409,-1.5394,-1.5394,-1.5388,-1.5385,-1.5383,-1.538,-1.5378,-1.5392,-1.5392,-1.5392,-1.5392,0,0,-1.5627,-1.5593,-1.559,-1.5578,-1.5552,-1.5539,-1.5524,-1.5503,-1.5493,-1.5475,-1.5461,-1.5436,-1.543,-1.5417,-1.5405,-1.5395,-1.5389,-1.5391,-1.539,-1.5391,-1.5371,-1.5375,-1.5374,-1.5383,-1.5383,-1.5382,-1.5373,0,-1.5621,-1.5594,-1.5578,-1.5557,-1.5542,-1.5527,-1.5513,-1.5495,-1.5482,-1.5466,-1.545,-1.5433,-1.5427,-1.5419,-1.5409,-1.5392,-1.5385,-1.5393,-1.5369,-1.5368,-1.5375,-1.5372,-1.5376,-1.5368,-1.5371,-1.5371,-1.5371,0,-1.5612,-1.5594,-1.5572,-1.5547,-1.554,-1.5528,-1.5507,-1.5492,-1.5471,-1.5462,-1.5447,-1.5435,-1.5417,-1.5415,-1.539,-1.5395,-1.5385,-1.5375,-1.5374,-1.5371,-1.5369,-1.5368,-1.5365,-1.5364,-1.5368,-1.5368,-1.5369,0,-1.5619,-1.559,-1.5572,-1.5563,-1.5534,-1.5525,-1.5513,-1.5492,-1.548,-1.5461,-1.5453,-1.5432,-1.5421,-1.5404,-1.5386,-1.5387,-1.5363,-1.5359,-1.5354,-1.5354,-1.5349,-1.535,-1.5344,-1.5343,-1.5343,-1.5343,-1.5343,0,-1.5615,-1.5601,-1.5575,-1.5565,-1.5549,-1.553,-1.5515,-1.5501,-1.5482,-1.5468,-1.5453,-1.544,-1.5417,-1.5401,-1.5386,-1.5367,-1.5362,-1.5354,-1.535,-1.5355,-1.5356,-1.5347,-1.5347,-1.5343,-1.5343,-1.5343,-1.5343,0,-1.562,-1.5603,-1.5582,-1.5557,-1.555,-1.5539,-1.5516,-1.5505,-1.549,-1.5472,-1.5467,-1.5443,-1.5423,-1.5404,-1.5377,-1.5367,-1.5348,-1.5343,-1.5355,-1.5353,-1.5348,-1.5348,-1.5336,-1.5333,-1.5335,-1.5335,-1.5335,0,-1.5619,-1.5608,-1.5581,-1.557,-1.5558,-1.5542,-1.5529,-1.551,-1.5498,-1.5473,-1.5464,-1.5443,-1.5425,-1.5393,-1.5373,-1.5352,-1.5346,-1.5344,-1.5343,-1.5348,-1.5346,-1.5346,-1.5345,-1.5344,-1.5344,-1.5344,-1.5344,0,-1.5617,-1.5609,-1.5592,-1.5572,-1.5557,-1.554,-1.5523,-1.5515,-1.5492,-1.5479,-1.5458,-1.5444,-1.5416,-1.5395,-1.5372,-1.5358,-1.5347,-1.5344,-1.5342,-1.5347,-1.5354,-1.5349,-1.5356,-1.5345,-1.5345,-1.5345,-1.5345,-1.5345,-1.5618,-1.5608,-1.5587,-1.5569,-1.5554,-1.5537,-1.5525,-1.5509,-1.5492,-1.5468,-1.5458,-1.5436,-1.5415,-1.5382,-1.5368,-1.5351,-1.5348,-1.5345,-1.5344,-1.5343,-1.5344,-1.5357,-1.5346,-1.5346,-1.5346,-1.5346,-1.5346,0,-1.5616,-1.5602,-1.5585,-1.5561,-1.5546,-1.5538,-1.5517,-1.5505,-1.5487,-1.5468,-1.5451,-1.5427,-1.5406,-1.5384,-1.5362,-1.5352,-1.5346,-1.5347,-1.5347,-1.5344,-1.5348,-1.5352,-1.5352,-1.5352,-1.5352,-1.5352,-1.5352,-1.5352,-1.5613,-1.5594,-1.5583,-1.5557,-1.5543,-1.5522,-1.5512,-1.5496,-1.5481,-1.5455,-1.5437,-1.5424,-1.5403,-1.5379,-1.5359,-1.5353,-1.5346,-1.5347,-1.534,-1.5344,-1.5344,-1.5343,-1.5347,-1.5346,-1.5346,-1.5337,-1.5337,-1.5337]},{"header":{"parameterUnit":"m.s-1","parameterCategory":1,"la1":30.2991,"la2":30.254,"lo1":-89.0895,"lo2":-89.0444,"dy":0.0017,"dx":0.0017,"nx":28,"ny":28,"refTime":"2024-06-07T03:00:00:Z","depth":0,"parameterNumber":3,"parameterNumberName":"V-component_of_WINDS"},"data":[0,0,0,0,0,0,0,0,0,0,0,0,0,0,0,0,0,0,0,0,0,0,0,0,0,0,0,0,0,0,0,0,0,0,0,0,0,0,0,0,0,0,0,0,0,0,0,0,0,0,0,0,0,0,0,0,0,0,1.0047,1.0047,0,1.0068,1.0069,1.0069,1.0118,1.0119,1.012,1.0121,1.0141,1.0141,1.014,0,0,0,0,0,0,0,0,0,0,0,0,0,1.0047,1.0047,1.0047,1.0047,1.0047,1.0068,1.0069,1.0069,1.0118,1.0119,1.012,1.0121,1.0141,1.0141,1.014,0,0,0,0,0,0,0,0,0,0,0,0,0,1.0055,1.0046,1.0047,1.0074,1.0077,1.0068,1.0069,1.0069,1.0118,1.0119,1.0121,1.0122,1.0141,1.0141,1.014,1.0106,0,0,1.0138,1.0138,0,0,0,0,0,0,0,0,1.0055,1.0055,1.007,1.0072,1.0075,1.0092,1.0076,1.0081,1.0117,1.0102,1.0121,1.0123,1.0123,1.0124,1.0125,1.0107,1.0107,1.0138,1.0138,1.0138,1.0137,0,0,0,0,0,0,0,1.0054,1.0055,1.0055,1.007,1.0073,1.0085,1.0088,1.0077,1.0104,1.0104,1.0107,1.0109,1.0125,1.0125,1.0126,1.0108,1.0138,1.0138,1.0137,1.0137,1.0063,1.0062,0,0,0,0,0,0,1.005,1.0054,1.0055,1.0056,1.0069,1.0084,1.0087,1.0085,1.0104,1.0108,1.0108,1.0111,1.0126,1.0126,1.0127,1.0089,1.0138,1.0137,1.0137,1.0065,1.0063,1.0061,0,0,0,0,0,0,1.005,1.0049,1.0054,1.0056,1.0057,1.0082,1.008,1.0085,1.0085,1.0107,1.0112,1.0103,1.0127,1.0128,1.0111,1.009,1.0137,1.0136,1.0067,1.0064,1.0062,1.0011,0,0,0,0,0,0,1.0049,1.0049,1.0036,1.0055,1.0057,1.0038,1.0078,1.0084,1.0084,1.0089,1.0104,1.0108,1.0128,1.0112,1.011,1.009,1.0136,1.0069,1.0066,1.0063,1.0015,1.0007,1.0001,0,0,0,0,0,1.0049,1.002,1.0035,1.0035,1.0042,1.0036,1.0037,1.0061,1.0082,1.007,1.0084,1.0108,1.0092,1.011,1.0108,1.0087,1.007,1.0067,1.0063,1.0018,1.0009,1.0001,0,0,0,0,0,0,0.9997,1.0023,1.004,1.0017,1.0024,1.0045,1.003,1.0051,1.0052,1.0056,1.0085,1.0088,1.0068,1.0076,1.0095,1.0056,1.0085,1.0081,1.0051,1.0043,1.0036,1.0034,1.0135,0,0,0,0,0,0.9983,0.9977,1.0,0.9977,0.998,1.0004,1.0002,1.0021,1.0029,1.0032,1.0045,1.0052,1.0049,1.0046,1.0044,1.0016,1.0021,1.0001,0.9994,0.9989,0.9985,0.9972,0.9963,1.005,1.005,1.005,0,0,0.9954,0.9967,0.9961,0.9967,0.9975,0.9968,1.0006,0.9997,0.9992,1.003,1.0016,1.0026,1.0036,1.0013,1.0004,1.0019,0.9962,0.9984,0.9979,0.9979,0.9967,0.9959,0.9952,1.0047,1.0048,1.0048,0,0,0.9897,0.9906,0.9889,0.9896,0.9908,0.9924,0.992,0.9938,0.9946,0.9932,0.9962,0.9956,0.9949,0.9956,0.9958,0.9904,0.9926,0.9903,0.9866,0.9853,0.9846,0.984,0.9822,0.9815,0.9899,0.9899,0.9899,0,0.9859,0.985,0.9877,0.9866,0.9868,0.9904,0.9886,0.9892,0.9902,0.9902,0.9919,0.9913,0.9922,0.9902,0.9889,0.989,0.9886,0.9901,0.9845,0.984,0.9834,0.9817,0.981,0.9896,0.9896,0.9897,0.9897,0,0.9803,0.9796,0.978,0.9791,0.9791,0.9776,0.9801,0.9798,0.9816,0.983,0.9816,0.9828,0.983,0.9827,0.9844,0.9809,0.9819,0.984,0.987,0.9823,0.9807,0.9801,0.9892,0.9893,0.9894,0.9894,0,0,0.9713,0.9739,0.9733,0.9739,0.9755,0.975,0.9738,0.9741,0.9737,0.9743,0.9734,0.9728,0.9749,0.9751,0.9769,0.9757,0.9715,0.978,0.9781,0.9768,0.9679,0.9663,0.9655,0.973,0.9729,0.9728,0.9678,0,0.966,0.9641,0.9666,0.9641,0.9636,0.967,0.966,0.9668,0.9682,0.9679,0.9693,0.9689,0.9716,0.9718,0.9708,0.9722,0.9698,0.9726,0.9721,0.9721,0.9719,0.9647,0.963,0.9583,0.9672,0.9671,0.9671,0,0.9596,0.96,0.9576,0.9595,0.9593,0.9583,0.9588,0.9585,0.9596,0.9606,0.961,0.9632,0.9621,0.965,0.9636,0.9655,0.9654,0.9661,0.966,0.9661,0.9693,0.9646,0.9568,0.9561,0.9661,0.9662,0.9663,0,0.9534,0.9534,0.9519,0.9523,0.9544,0.9537,0.9545,0.9557,0.9558,0.9562,0.9563,0.9565,0.9566,0.9567,0.959,0.9609,0.9573,0.9604,0.9581,0.9581,0.9572,0.9573,0.9494,0.9571,0.9571,0.9571,0.9571,0,0.9473,0.9457,0.9492,0.9483,0.9466,0.9494,0.9476,0.9488,0.9499,0.9493,0.9522,0.9516,0.9546,0.9542,0.956,0.9546,0.9546,0.9554,0.9559,0.9552,0.9551,0.9552,0.9556,0.9569,0.957,0.957,0.957,0,0.9401,0.9424,0.9411,0.9432,0.9438,0.9424,0.9443,0.9435,0.9451,0.9443,0.9443,0.9467,0.9465,0.9487,0.9489,0.9501,0.9479,0.9489,0.9475,0.9479,0.9455,0.9458,0.9375,0.9366,0.9448,0.9447,0.9447,0,0.9361,0.9349,0.937,0.9369,0.9376,0.9373,0.9374,0.9402,0.9402,0.9413,0.9405,0.9405,0.9407,0.9402,0.9419,0.9421,0.9432,0.9403,0.9432,0.9426,0.9432,0.9433,0.9432,0.9397,0.9396,0.9395,0.9394,0,0.9287,0.9299,0.93,0.9305,0.9306,0.9311,0.9317,0.9314,0.9344,0.9342,0.9341,0.9343,0.9345,0.9345,0.9351,0.9359,0.9381,0.9385,0.938,0.9373,0.9366,0.937,0.9459,0.9387,0.9387,0.9388,0.9388,0.9389,0.923,0.9222,0.9236,0.9236,0.9245,0.9251,0.9245,0.9261,0.926,0.9265,0.9281,0.9277,0.9289,0.9299,0.9305,0.9302,0.9316,0.9309,0.9307,0.9305,0.9301,0.9366,0.9303,0.9303,0.9304,0.9304,0.9304,0,0.9159,0.917,0.917,0.9179,0.9179,0.9201,0.921,0.9209,0.9205,0.9215,0.9216,0.9215,0.9216,0.9234,0.9236,0.9231,0.9241,0.9231,0.9231,0.9233,0.9288,0.9292,0.9222,0.9222,0.9222,0.9222,0.9222,0.9222,0.9122,0.911,0.9124,0.9116,0.9127,0.9124,0.9128,0.9133,0.9141,0.9139,0.914,0.9152,0.9165,0.9169,0.9171,0.9176,0.9176,0.9162,0.917,0.9221,0.9229,0.9237,0.9241,0.9161,0.9161,0.9116,0.9116,0.9115]}]]